Flag for U.S.A. Weather past 2 weeks in St. Paul, Minnesota, U.S.A.

22 °F


Feels Like: 10 °F
Forecast: 18 / 26 °F
Wind: 13 mph from North

Location: St. Paul Downtown Holman Field

Current Time: Nov 27, 2015 at 4:30:47 AM

Latest Report: Nov 27, 2015 at 3:53 AM

Visibility: 10 mi

Pressure: 30.57 "Hg

Humidity: 75%

Dew point: 15 °F

Location of St. PaulLocation

Historic Weather in St. Paul — Graph


St. Paul temperature yesterday

Maximum temperature yesterday: 39 °F (at 12:53 AM)
Minimum temperature yesterday: 25 °F (at 11:53 PM)
Average temperature yesterday: 32 °F

Past Weeks' High & Low Weather Summary

High61 °F (Nov 15, 1:53 PM)100% (Nov 17, 5:53 PM)30.55 "Hg (Nov 17, 5:53 PM)
Low16 °F (Nov 21, 6:53 AM)38% (Nov 19, 9:53 PM)29.09 "Hg (Nov 18, 2:53 PM)
Average38 °F75%29.95 "Hg
* Reported Nov 12 2:53 AM — Nov 27 2:53 AM, St. Paul, Weather by CustomWeather, © 2015

Note: Actual official high and low records may vary slightly from our data, if they occured in-between our weather recording intervals... More about our weather records


St. Paul weather history for previous 24 hours

Time TempWeatherWind HumidityBarometerVisibility
2:53 AM
Fri, Nov 27
24 °FOvercast.15 mph75%30.55 "Hg10 mi
1:53 AM24 °FOvercast.15 mph75%30.53 "Hg10 mi
12:53 AM25 °FOvercast.13 mph75%30.53 "Hg10 mi
11:53 PM
Thu, Nov 26
25 °FOvercast.12 mph75%30.51 "Hg10 mi
10:53 PM26 °FOvercast.13 mph71%30.49 "Hg10 mi
9:53 PM27 °FOvercast.10 mph75%30.47 "Hg10 mi
8:53 PM27 °FOvercast.14 mph78%30.44 "Hg10 mi
7:53 PM28 °FClear.12 mph75%30.42 "Hg10 mi
6:53 PM29 °FClear.16 mph72%30.40 "Hg10 mi
5:53 PM30 °FOvercast.14 mph72%30.38 "Hg10 mi
4:53 PM30 °FOvercast.13 mph79%30.36 "Hg10 mi
3:53 PM30 °FOvercast.13 mph85%30.35 "Hg10 mi
2:53 PM30 °FLight snow. Ice fog.14 mph85%30.32 "Hg2 mi
2:01 PM30 °FLight snow. Ice fog.15 mph89%30.28 "Hg2 mi
1:55 PM30 °FLight snow. Ice fog.14 mph92%30.27 "Hg1 mi
12:53 PM31 °FLight snow. Ice fog.15 mph89%30.29 "Hg1 mi
12:02 PM31 °FLight snow. Ice fog.13 mph92%30.26 "Hg1 mi
11:53 AM31 °FLight snow. Ice fog.13 mph92%30.27 "Hg1 mi
10:53 AM32 °FLight snow. Ice fog.10 mph92%30.28 "Hg1 mi
10:02 AM32 °FLight snow. Ice fog.10 mph92%30.28 "Hg1 mi
9:53 AM32 °FLight snow. Ice fog.9 mph92%30.29 "Hg1 mi
8:53 AM33 °FLight snow. Fog.13 mph88%30.25 "Hg6 mi
7:53 AM34 °FLight snow. Overcast.12 mph88%30.26 "Hg7 mi
6:53 AM36 °FOvercast.10 mph82%30.22 "Hg10 mi
5:53 AM36 °FOvercast.12 mph85%30.22 "Hg10 mi
4:53 AM37 °FOvercast.13 mph79%30.19 "Hg10 mi
Weather by CustomWeather, © 2015

See weather overviewHow to use our weather pages